Find Starlink 3218

NORAD ID: 49725 Int'l Des: 2021-115 Owner: SPXS Country: US Constellation: starlink operational
LEOCIRCULAR

現在のビュー

3D地球を読み込み中...

About Starlink 3218

Starlink 3218 (NORAD 49725) is a starlink constellation satellite (v1.5) launched Dec 2, 2021 by SPXS of US. It operates in LEO, CIRCULAR orbit with a mass of 290.00 kg.

次回通過

Passes for default location (London). Set your location on the main map for personalized predictions.

高度履歴

Loading altitude history...

軌道要素

1 49725U 21115B 26263.92050099 .00001201 00000-0 46680-4 0 9992
2 49725 53.1613 339.8941 0001245 80.3952 279.7191 15.34385633265183
Epoch: Sep 20, 2026 • Age: 11 hours

現在のステータス

高度 466.2 km
遠地点 / 近地点 N/A
速度 7.63 km/s
衛星直下点 -12.63°S, 166.59°W
打ち上げ日 Dec 2, 2021
運用期間 4.7 years
タイプ internet

技術仕様

分類 Payload
質量 290.00 kg
乾燥質量 270.00 kg
長さ 0.20 m
スパン 9.00 m
形状 ? Box + pan
製造者 SPXS
バスタイプ Starlink
フェーズステータス In Orbit
所有者/国 SPXS/US

Most Searched